This is the latest recevied weather packets stored in our database for station/object W4OTS. If no packets are shown the sender has not sent any weather packets the latest 10 day(s).
| Time | Temp. | Humidity | Pressure | Rain* | Wind** | Luminosity | Snow |
|---|---|---|---|---|---|---|---|
| 1777536766 | 16.11° C | 92% | 1011.3 hPa | 0 mm | - | 0 W/m² | - |
| 1777536462 | 16.11° C | 90% | 1010.9 hPa | 0 mm | - | 0 W/m² | - |
| 1777536159 | 15.56° C | 92% | 1011 hPa | 0 mm | - | 0 W/m² | - |
| 1777535855 | 15.56° C | 93% | 1010.9 hPa | 0 mm | - | 0 W/m² | - |
| 1777535552 | 15.56° C | 93% | 1011.2 hPa | 0 mm | - | 0 W/m² | - |
| 1777535248 | 15.56° C | 92% | 1011 hPa | 0 mm | - | 0 W/m² | - |
| 1777534946 | 15.56° C | 91% | 1010.9 hPa | 0 mm | - | 0 W/m² | - |
| 1777534642 | 16.11° C | 90% | 1010.9 hPa | 0 mm | - | 0 W/m² | - |
| 1777534340 | 16.11° C | 90% | 1011.1 hPa | 0 mm | - | 0 W/m² | - |
| 1777534037 | 15.56° C | 91% | 1011 hPa | 0 mm | - | 0 W/m² | - |
| 1777533735 | 15.56° C | 91% | 1011 hPa | 0 mm | - | 0 W/m² | - |
| 1777533430 | 15.56° C | 91% | 1011 hPa | 0 mm | - | 0 W/m² | - |
| 1777533126 | 15.56° C | 91% | 1010.8 hPa | 0 mm | - | 0 W/m² | - |
| 1777532824 | 16.11° C | 92% | 1010.8 hPa | 0 mm | - | 0 W/m² | - |
| 1777532520 | 16.11° C | 91% | 1010.8 hPa | 0 mm | - | 0 W/m² | - |
| 1777532217 | 16.11° C | 91% | 1010.8 hPa | 0 mm | - | 0 W/m² | - |
| 1777531914 | 16.67° C | 90% | 1010.6 hPa | 0 mm | - | 0 W/m² | - |
| 1777531609 | 16.67° C | 87% | 1010.7 hPa | 0 mm | - | 0 W/m² | - |
| 1777531307 | 16.67° C | 88% | 1010.7 hPa | 0 mm | - | 0 W/m² | - |
| 1777531005 | 16.67° C | 87% | 1010.9 hPa | 0 mm | - | 0 W/m² | - |
| 1777530702 | 16.67° C | 89% | 1010.9 hPa | 0 mm | - | 0 W/m² | - |
| 1777530399 | 16.11° C | 90% | 1011 hPa | 0 mm | - | 0 W/m² | - |
| 1777530095 | 16.11° C | 90% | 1011 hPa | 0 mm | - | 0 W/m² | - |
| 1777529793 | 16.67° C | 89% | 1011.2 hPa | 0 mm | - | 0 W/m² | - |
| 1777529488 | 16.67° C | 89% | 1011.3 hPa | 0 mm | - | 0 W/m² | - |
* Rain latest hour (hover to see other rain measurements)
** Current wind speed in m/s (hover to see current wind gust speed)